Location: Kellogg
(38.0159°N, 90.0546°W)
Time: 08:46:53
(UTC+00:00)

S-56A Canister/Altair - Pass Details

Date: 16 September 2024
Orbit: 636 x 2487 km, 38.9° (Epoch: 09 October)

Event Time Altitude Azimuth Distance (km) Brightness Sun altitude
Rises 07:29:27 0° 280° (W) 4,813 - -44.1°
Reaches altitude 10° 07:33:09 10° 267° (W) 4,108 - -43.6°
Maximum altitude 07:41:30 24° 220° (SW) 3,613 - -42.7°
Drops below altitude 10° 07:51:37 10° 174° (S) 5,031 - -41.4°
Sets 07:56:55 0° 162° (SSE) 6,133 - -40.7°
